Regional Weather Roundup
Issued by NWS Cleveland, OH

Home | Current Version | Previous Version | Text Only | Print | Product List | Glossary On
Versions: 1 2 3 4 5 6 7 8 9 10 11 12 13 14 15 16 17 18 19 20 21 22 23 24 25 26 27 28 29 30 31 32 33 34 35 36 37 38 39 40 41 42 43 44 45 46 47 48 49 50
000
ASUS41 KCLE 021910
RWRCLE
OHIO REGIONAL WEATHER ROUNDUP
NATIONAL WEATHER SERVICE WILMINGTON, OH
300 PM EDT TUE JUN 02 2015

NOTE: "FAIR" INDICATES FEW OR NO CLOUDS BELOW 12,000 FEET WITH NO
SIGNIFICANT WEATHER AND/OR OBSTRUCTIONS TO VISIBILITY.

OHZ001>008-015>018-024>027-034-035-043-044-022000-
   NORTHWEST OHIO

CITY           SKY/WX    TMP DP  RH WIND       PRES   REMARKS
DEFIANCE       MOSUNNY   69  52  54 E12G21    30.15F
FINDLAY        MOSUNNY   67  52  58 NE14G22   30.14F
TOLEDO EXPRESS SUNNY     66  49  54 E13G20    30.17F
TOLEDO EXEC    SUNNY     65  49  56 E15G23    30.18F
LIMA           PTSUNNY   66  54  65 NE14      30.14F
$$

OHZ009>014-019>023-028>033-038-089-022000-
   NORTHEAST OHIO

CITY           SKY/WX    TMP DP  RH WIND       PRES   REMARKS
CLE-HOPKINS    MOSUNNY   64  50  60 N18       30.16F
CLE-LAKEFRONT  SUNNY     60  50  69 NE18G29   30.14F
CUY CO. ARPT   MOSUNNY   68 N/A N/A NE12      30.15F
LORAIN-ELYRIA  SUNNY     63  52  67 NE15G21   30.15F
ASHTABULA      MOSUNNY   63  52  67 N7        30.16F
AKRON-CANTON   PTSUNNY   64  51  62 NE10      30.15F
WOOSTER        MOSUNNY   66  54  65 E10G20    30.14F
MANSFIELD      PTSUNNY   65  53  65 NE10      30.13F
YOUNGSTOWN     CLOUDY    66  51  58 NE8       30.14F
$$

OHZ042-051>053-060>062-070>072-077>081-022000-
  SOUTHWEST OHIO

CITY           SKY/WX    TMP DP  RH WIND       PRES   REMARKS
CINC-COVINGTON CLOUDY    60  51  72 N6        30.13F
CINC-LUNKEN    CLOUDY    59  52  77 NE7       30.14F
HAMILTON       CLOUDY    59  51  75 NE7       30.15F
DAYTON         CLOUDY    62  52  69 NE7       30.15F
WRIGHT-PAT AFB CLOUDY    59  51  74 N7        30.14F
DAYTON GENERAL CLOUDY    58  51  78 E7        30.13F
WILMINGTON     CLOUDY    58  50  75 NE10      30.13F
$$

OHZ036-037-039>041-045>050-054>059-063>069-073>076-082>088-022000-
  CENTRAL AND SOUTHEAST OHIO

CITY           SKY/WX    TMP DP  RH WIND       PRES   REMARKS
COLUMBUS       CLOUDY    63  52  67 NE9       30.13F
OSU AIRPORT    CLOUDY    64  52  64 N8        30.13F
BOLTON FIELD   CLOUDY    63  52  67 NE5       30.13F
RICKENBACK AFB CLOUDY    61  52  72 NE5       30.13F
NEWARK         CLOUDY    63  51  65 NE8       30.13F
MARION         CLOUDY    67  53  61 E9        30.13F
LANCASTER      CLOUDY    61  52  72 E3        30.14F
ZANESVILLE     CLOUDY    60  50  69 NE7       30.14S
NEW PHILLY     CLOUDY    62  51  67 VRB7      30.15F
$$



USA.gov is the U.S. government's official web portal to all federal, state and local government web resources and services.